Location: Unspecified
(0.0000°N, 0.0000°E)
Time: 20:36:03
(UTC+00:00)

STARLINK-31884 - Pass Details

Date: 17 December 2025
Orbit: 482 x 484 km, 43.0° (Epoch: 22 January)

Event Time Altitude Azimuth Distance (km) Brightness Sun altitude
Exits shadow 04:08:31 23° 46° (NE) 1,049 5.2 -24.5°
Drops below altitude 10° 04:10:03 10° 45° (NE) 1,644 6.2 -24.2°
Sets 04:12:13 0° 45° (NE) 2,521 7.2 -23.7°
